UAL1791 KLAX-KSFO

Flight info

Callsign UAL1791
Flight time 0h 51m
Altitude 30000
Route SUMMR2 STOKD SERFR SERFR4
Aircraft B739/M-SDE2E3FGHIRWXY/LB1

Departure

Time 2026-05-04 17:40
Airport Los Angeles International Airport (KLAX)

Arrival

Time 2026-05-04 18:31
Airport San Francisco International Airport (KSFO)
Time Latitude Longitude Altitude Speed Heading
2026-05-04 17:24 33.94248 -118.40054 134 ft 0 kts 83°
2026-05-04 17:33 33.94243 -118.40080 134 ft 0 kts 62°
2026-05-04 17:34 33.94244 -118.40076 134 ft 0 kts 75°
2026-05-04 17:34 33.94245 -118.40075 134 ft 0 kts 75°
2026-05-04 17:35 33.94244 -118.40056 134 ft 5 kts 114°
2026-05-04 17:35 33.94122 -118.40090 134 ft 15 kts 176°
2026-05-04 17:35 33.94023 -118.40078 134 ft 14 kts 173°
2026-05-04 17:36 33.93931 -118.40064 134 ft 13 kts 167°
2026-05-04 17:36 33.93880 -118.39976 134 ft 17 kts 86°
2026-05-04 17:36 33.93897 -118.39797 134 ft 26 kts 83°
2026-05-04 17:36 33.93922 -118.39564 134 ft 28 kts 83°
2026-05-04 17:37 33.93944 -118.39343 134 ft 25 kts 82°
2026-05-04 17:37 33.93966 -118.39143 134 ft 23 kts 83°
2026-05-04 17:37 33.93986 -118.38951 134 ft 25 kts 83°
2026-05-04 17:37 33.94009 -118.38727 134 ft 29 kts 83°
2026-05-04 17:38 33.94035 -118.38473 134 ft 31 kts 83°
2026-05-04 17:38 33.94061 -118.38224 134 ft 29 kts 82°
2026-05-04 17:38 33.94046 -118.38042 134 ft 18 kts 147°
2026-05-04 17:38 33.93976 -118.38079 134 ft 14 kts 261°
2026-05-04 17:39 33.93896 -118.38867 135 ft 101 kts 263°
2026-05-04 17:39 33.93790 -118.39919 135 ft 150 kts 262°
2026-05-04 17:39 33.93650 -118.41281 500 ft 164 kts 263°
2026-05-04 17:40 33.93533 -118.42631 1214 ft 167 kts 262°
2026-05-04 17:40 33.93373 -118.44110 1609 ft 188 kts 262°
2026-05-04 17:40 33.93187 -118.45791 1930 ft 216 kts 262°
2026-05-04 17:40 33.93016 -118.47606 2345 ft 237 kts 264°
2026-05-04 17:41 33.92914 -118.48948 2755 ft 248 kts 265°
2026-05-04 17:41 33.92706 -118.51763 4007 ft 253 kts 264°
2026-05-04 17:41 33.92584 -118.53187 4673 ft 254 kts 264°
2026-05-04 17:41 33.92406 -118.55316 5589 ft 257 kts 264°
2026-05-04 17:42 33.92221 -118.57493 6514 ft 259 kts 264°
2026-05-04 17:42 33.92044 -118.59641 7339 ft 264 kts 264°
2026-05-04 17:42 33.91855 -118.61881 8180 ft 267 kts 264°
2026-05-04 17:42 33.91712 -118.64123 9002 ft 271 kts 267°
2026-05-04 17:43 33.91700 -118.66409 9871 ft 271 kts 270°
2026-05-04 17:43 33.91734 -118.68749 10782 ft 272 kts 269°
2026-05-04 17:43 33.91744 -118.71022 11357 ft 283 kts 268°
2026-05-04 17:43 33.91744 -118.73479 11817 ft 297 kts 268°
2026-05-04 17:44 33.91730 -118.76020 12005 ft 318 kts 267°
2026-05-04 17:44 33.91719 -118.78768 12025 ft 339 kts 268°
2026-05-04 17:44 33.91706 -118.81646 12019 ft 344 kts 268°
2026-05-04 17:44 33.91700 -118.84525 12139 ft 344 kts 268°
2026-05-04 17:45 33.91779 -118.87415 13024 ft 339 kts 270°
2026-05-04 17:45 33.91895 -118.90216 13892 ft 338 kts 270°
2026-05-04 17:45 33.91990 -118.93075 14590 ft 340 kts 269°
2026-05-04 17:45 33.92074 -118.95926 15255 ft 342 kts 268°
2026-05-04 17:46 33.92200 -118.98802 15932 ft 346 kts 273°
2026-05-04 17:46 33.92752 -119.01648 16581 ft 354 kts 284°
2026-05-04 17:46 33.93783 -119.04368 17202 ft 362 kts 292°
2026-05-04 17:46 33.95023 -119.07038 17783 ft 366 kts 294°
2026-05-04 17:47 33.96367 -119.09658 18369 ft 369 kts 295°
2026-05-04 17:47 33.97733 -119.12296 18938 ft 372 kts 294°
2026-05-04 17:47 33.99104 -119.14948 19498 ft 375 kts 295°
2026-05-04 17:47 34.00677 -119.17502 20027 ft 386 kts 303°
2026-05-04 17:48 34.02596 -119.19833 20479 ft 397 kts 310°
2026-05-04 17:48 34.04799 -119.21971 20987 ft 404 kts 315°
2026-05-04 17:48 34.07101 -119.23970 21463 ft 409 kts 316°
2026-05-04 17:48 34.09443 -119.25944 21912 ft 412 kts 316°
2026-05-04 17:49 34.11786 -119.27940 22351 ft 415 kts 316°
2026-05-04 17:49 34.14149 -119.29965 22778 ft 417 kts 315°
2026-05-04 17:49 34.16531 -119.31989 23186 ft 420 kts 315°
2026-05-04 17:49 34.18919 -119.34029 23580 ft 422 kts 315°
2026-05-04 17:50 34.21323 -119.36098 23926 ft 425 kts 315°
2026-05-04 17:50 34.23739 -119.38183 24300 ft 428 kts 315°
2026-05-04 17:50 34.26162 -119.40279 24662 ft 430 kts 314°
2026-05-04 17:50 34.28602 -119.42393 24964 ft 433 kts 314°
2026-05-04 17:51 34.31060 -119.44524 25307 ft 435 kts 314°
2026-05-04 17:51 34.33524 -119.46663 25640 ft 437 kts 314°
2026-05-04 17:51 34.36004 -119.48815 25952 ft 439 kts 313°
2026-05-04 17:51 34.38492 -119.50974 26256 ft 441 kts 313°
2026-05-04 17:52 34.40915 -119.53228 26548 ft 436 kts 308°
2026-05-04 17:52 34.43173 -119.55741 26781 ft 434 kts 304°
2026-05-04 17:52 34.45302 -119.58321 27112 ft 432 kts 303°
2026-05-04 17:52 34.47400 -119.60914 27518 ft 430 kts 302°
2026-05-04 17:53 34.49479 -119.63508 27877 ft 429 kts 302°
2026-05-04 17:53 34.51571 -119.66093 28264 ft 428 kts 302°
2026-05-04 17:53 34.53650 -119.68669 28636 ft 427 kts 301°
2026-05-04 17:53 34.55721 -119.71246 28997 ft 425 kts 301°
2026-05-04 17:54 34.57786 -119.73810 29269 ft 427 kts 301°
2026-05-04 17:54 34.59867 -119.76386 29582 ft 427 kts 301°
2026-05-04 17:54 34.61946 -119.78960 29931 ft 425 kts 301°
2026-05-04 17:54 34.64043 -119.81569 30032 ft 429 kts 301°
2026-05-04 17:55 34.68270 -119.86763 30058 ft 435 kts 301°
2026-05-04 17:55 34.72503 -119.91978 30057 ft 428 kts 301°
2026-05-04 17:56 34.76654 -119.97132 30061 ft 427 kts 301°
2026-05-04 17:56 34.80830 -120.02330 30061 ft 431 kts 301°
2026-05-04 17:57 34.85042 -120.07575 30062 ft 431 kts 301°
2026-05-04 17:57 34.89249 -120.12789 30070 ft 430 kts 302°
2026-05-04 17:58 34.93414 -120.17977 30072 ft 428 kts 301°
2026-05-04 17:58 34.97578 -120.23209 30075 ft 428 kts 301°
2026-05-04 17:59 35.01720 -120.28422 30079 ft 429 kts 302°
2026-05-04 18:00 35.08032 -120.36362 30077 ft 434 kts 302°
2026-05-04 18:00 35.12401 -120.41510 30074 ft 438 kts 306°
2026-05-04 18:01 35.16917 -120.46464 30074 ft 437 kts 306°
2026-05-04 18:01 35.21422 -120.51487 30072 ft 437 kts 306°
2026-05-04 18:02 35.28157 -120.58995 30073 ft 434 kts 306°
2026-05-04 18:02 35.32625 -120.64018 30070 ft 437 kts 305°
2026-05-04 18:03 35.37080 -120.69060 30075 ft 434 kts 306°
2026-05-04 18:03 35.41514 -120.74076 30082 ft 434 kts 305°
2026-05-04 18:04 35.45200 -120.78250 30087 ft 432 kts 306°
2026-05-04 18:05 35.52189 -120.85514 30099 ft 445 kts 312°
2026-05-04 18:05 35.57167 -120.90059 30096 ft 444 kts 312°
2026-05-04 18:06 35.64634 -120.96970 30103 ft 446 kts 312°
2026-05-04 18:06 35.69570 -121.01579 30099 ft 444 kts 312°
2026-05-04 18:07 35.74525 -121.06192 30102 ft 444 kts 312°
2026-05-04 18:07 35.79434 -121.10746 30103 ft 441 kts 312°
2026-05-04 18:08 35.84348 -121.15318 30102 ft 444 kts 313°
2026-05-04 18:08 35.89273 -121.19919 30094 ft 442 kts 312°
2026-05-04 18:09 35.99024 -121.29098 30094 ft 443 kts 313°
2026-05-04 18:10 36.03918 -121.33733 30090 ft 441 kts 314°
2026-05-04 18:10 36.08874 -121.38216 30087 ft 446 kts 318°
2026-05-04 18:11 36.14200 -121.42297 29890 ft 451 kts 320°
2026-05-04 18:11 36.16878 -121.44345 29551 ft 443 kts 320°
2026-05-04 18:11 36.19472 -121.46355 29005 ft 438 kts 320°
2026-05-04 18:12 36.22042 -121.48363 28463 ft 435 kts 321°
2026-05-04 18:12 36.24633 -121.50353 27919 ft 431 kts 321°
2026-05-04 18:12 36.27161 -121.52317 27386 ft 427 kts 321°
2026-05-04 18:12 36.29659 -121.54272 26864 ft 423 kts 322°
2026-05-04 18:13 36.32135 -121.56216 26343 ft 419 kts 322°
2026-05-04 18:13 36.34585 -121.58141 25826 ft 415 kts 323°
2026-05-04 18:13 36.39428 -121.61954 24801 ft 408 kts 324°
2026-05-04 18:14 36.41814 -121.63834 24295 ft 405 kts 324°
2026-05-04 18:14 36.44175 -121.65695 23794 ft 401 kts 325°
2026-05-04 18:14 36.46525 -121.67547 23294 ft 398 kts 325°
2026-05-04 18:15 36.51168 -121.71199 22302 ft 391 kts 326°
2026-05-04 18:15 36.55723 -121.74785 21327 ft 385 kts 326°
2026-05-04 18:15 36.57976 -121.76567 20842 ft 382 kts 326°
2026-05-04 18:16 36.60213 -121.78342 20361 ft 380 kts 327°
2026-05-04 18:16 36.62434 -121.80105 19882 ft 377 kts 327°
2026-05-04 18:16 36.64657 -121.81871 19400 ft 375 kts 327°
2026-05-04 18:17 36.69035 -121.85351 18450 ft 370 kts 327°
2026-05-04 18:17 36.71191 -121.87064 17986 ft 367 kts 327°
2026-05-04 18:17 36.75815 -121.89814 17009 ft 362 kts 343°
2026-05-04 18:18 36.78178 -121.90615 16540 ft 360 kts 347°
2026-05-04 18:18 36.80621 -121.91281 16070 ft 358 kts 349°
2026-05-04 18:18 36.83049 -121.91921 15607 ft 355 kts 348°
2026-05-04 18:18 36.85455 -121.92579 15147 ft 353 kts 348°
2026-05-04 18:19 36.90219 -121.93906 14230 ft 348 kts 348°
2026-05-04 18:19 36.92584 -121.94567 13770 ft 346 kts 348°
2026-05-04 18:19 36.94923 -121.95223 13311 ft 344 kts 348°
2026-05-04 18:20 36.97237 -121.95983 12852 ft 342 kts 345°
2026-05-04 18:20 36.99504 -121.96860 12392 ft 341 kts 343°
2026-05-04 18:20 37.01753 -121.97783 11928 ft 339 kts 343°
2026-05-04 18:20 37.04025 -121.98699 11457 ft 337 kts 343°
2026-05-04 18:21 37.06250 -121.99585 10995 ft 335 kts 343°
2026-05-04 18:21 37.08469 -122.00461 10532 ft 333 kts 343°
2026-05-04 18:21 37.10668 -122.01327 10172 ft 328 kts 343°
2026-05-04 18:21 37.12805 -122.02167 10118 ft 313 kts 343°
2026-05-04 18:22 37.14838 -122.02966 10050 ft 299 kts 343°
2026-05-04 18:22 37.16806 -122.03739 10001 ft 285 kts 343°
2026-05-04 18:22 37.18657 -122.04465 9704 ft 282 kts 343°
2026-05-04 18:22 37.20554 -122.05209 9327 ft 282 kts 343°
2026-05-04 18:23 37.22422 -122.05943 8963 ft 281 kts 342°
2026-05-04 18:23 37.24283 -122.06671 8604 ft 280 kts 342°
2026-05-04 18:23 37.26156 -122.07408 8246 ft 279 kts 342°
2026-05-04 18:23 37.27986 -122.08124 8036 ft 276 kts 342°
2026-05-04 18:24 37.29836 -122.08854 7572 ft 283 kts 342°
2026-05-04 18:24 37.31717 -122.09594 7156 ft 283 kts 342°
2026-05-04 18:24 37.33593 -122.10345 6778 ft 284 kts 342°
2026-05-04 18:24 37.35489 -122.11069 6396 ft 286 kts 341°
2026-05-04 18:25 37.37378 -122.11829 6111 ft 281 kts 341°
2026-05-04 18:25 37.39232 -122.12530 5735 ft 280 kts 343°
2026-05-04 18:25 37.41122 -122.13155 5342 ft 280 kts 344°
2026-05-04 18:25 37.43002 -122.13782 4991 ft 278 kts 344°
2026-05-04 18:26 37.44262 -122.14203 4756 ft 275 kts 344°
2026-05-04 18:26 37.46079 -122.14818 4422 ft 269 kts 343°
2026-05-04 18:26 37.47879 -122.15436 4092 ft 267 kts 343°
2026-05-04 18:26 37.49648 -122.16046 3756 ft 253 kts 343°
2026-05-04 18:27 37.51273 -122.16609 3459 ft 240 kts 343°
2026-05-04 18:27 37.52802 -122.17297 3192 ft 228 kts 328°
2026-05-04 18:27 37.53964 -122.18595 3020 ft 222 kts 306°
2026-05-04 18:27 37.54728 -122.20256 2766 ft 217 kts 295°
2026-05-04 18:28 37.55381 -122.21961 2451 ft 214 kts 295°
2026-05-04 18:28 37.56051 -122.23614 2158 ft 210 kts 296°
2026-05-04 18:28 37.56726 -122.25238 1875 ft 202 kts 296°
2026-05-04 18:28 37.57363 -122.26759 1606 ft 190 kts 296°
2026-05-04 18:29 37.57961 -122.28184 1372 ft 176 kts 296°
2026-05-04 18:29 37.58503 -122.29473 1161 ft 159 kts 296°
2026-05-04 18:29 37.59003 -122.30665 937 ft 153 kts 295°
2026-05-04 18:29 37.59498 -122.31833 731 ft 150 kts 295°
2026-05-04 18:30 37.60469 -122.34148 368 ft 149 kts 295°
2026-05-04 18:30 37.60953 -122.35316 194 ft 150 kts 295°
2026-05-04 18:30 37.61442 -122.36470 23 ft 145 kts 297°
2026-05-04 18:31 37.61836 -122.37417 22 ft 93 kts 299°
2026-05-04 18:31 37.62050 -122.37923 21 ft 53 kts 296°
2026-05-04 18:31 37.62175 -122.38228 21 ft 23 kts 287°
2026-05-04 18:31 37.62122 -122.38326 21 ft 9 kts 192°
2026-05-04 18:32 37.62117 -122.38327 21 ft 0 kts 192°
2026-05-04 18:32 37.62089 -122.38335 21 ft 8 kts 191°
2026-05-04 18:32 37.62021 -122.38322 21 ft 14 kts 138°
2026-05-04 18:33 37.61955 -122.38256 21 ft 11 kts 192°
2026-05-04 18:33 37.61896 -122.38293 21 ft 4 kts 213°
2026-05-04 18:33 37.61886 -122.38321 21 ft 5 kts 272°
2026-05-04 18:33 37.61890 -122.38363 21 ft 3 kts 279°
2026-05-04 18:34 37.61891 -122.38372 21 ft 0 kts 279°